[[{"header":{"parameterUnit":"m.s-1","parameterCategory":1,"la1":30.2992,"la2":30.254,"lo1":-89.0895,"lo2":-89.0443,"dy":0.0025,"dx":0.0025,"nx":19,"ny":19,"refTime":"2026-03-18T03:00:00:Z","depth":0,"parameterNumber":2,"parameterNumberName":"U-component_of_WINDS"},"data":[0,0,0,-3.1961,-3.1963,-3.2007,-3.2007,-3.2099,-3.21,0,0,0,0,0,0,0,0,0,0,0,-3.1967,-3.1968,-3.1961,-3.1963,-3.2007,-3.2007,-3.2098,-3.21,0,0,0,0,0,0,0,0,0,0,0,-3.1967,-3.1968,-3.197,-3.1963,-3.2007,-3.2007,-3.2098,-3.2053,0,0,0,0,0,0,0,0,0,0,-3.2004,-3.2027,-3.1968,-3.197,-3.1964,-3.2007,-3.2007,-3.205,-3.2056,-3.2093,0,-3.2129,0,-3.2116,-3.2108,-3.2108,0,0,0,-3.1949,-3.2023,-3.2017,-3.197,-3.1964,-3.2007,-3.1983,-3.2053,-3.2059,-3.2101,-3.213,-3.2132,-3.2118,-3.2109,-3.2109,-3.2366,-3.2368,0,0,-3.1947,-3.1986,-3.2013,-3.2023,-3.2016,-3.1982,-3.1985,-3.2056,-3.2092,-3.213,-3.2134,-3.2119,-3.211,-3.211,-3.2365,-3.2367,0,0,0,-3.1949,-3.1985,-3.1977,-3.202,-3.2025,-3.1984,-3.1987,-3.2088,-3.2083,-3.2135,-3.212,-3.211,-3.2112,-3.2363,-3.2365,-3.2496,0,0,0,-3.1947,-3.1986,-3.1977,-3.2001,-3.2024,-3.2057,-3.2018,-3.2078,-3.2084,-3.212,-3.211,-3.2113,-3.236,-3.2364,-3.2488,-3.2552,0,0,0,-3.1958,-3.1987,-3.1999,-3.2003,-3.2023,-3.2055,-3.2052,-3.2078,-3.2076,-3.2108,-3.2113,-3.2359,-3.2363,-3.2481,-3.254,-3.2633,0,0,0,-3.1981,-3.2114,-3.2002,-3.2145,-3.2023,-3.2134,-3.2051,-3.2132,-3.2175,-3.2111,-3.2361,-3.2365,-3.2478,-3.2532,-3.2626,-3.272,-3.2762,0,0,-3.217,-3.2138,-3.2219,-3.212,-3.2261,-3.2124,-3.2285,-3.2287,-3.2255,-3.2332,-3.2337,-3.249,-3.2539,-3.2631,-3.2982,-3.3016,0,0,0,-3.2292,-3.2351,-3.238,-3.2422,-3.2427,-3.2438,-3.2411,-3.2413,-3.2476,-3.2301,-3.2546,-3.2574,-3.2627,-3.2671,-3.27,-3.2744,-3.2386,-3.2386,-3.2385,-3.2616,-3.2568,-3.27,-3.2658,-3.27,-3.2672,-3.2703,-3.2701,-3.2639,-3.2698,-3.2721,-3.2939,-3.2992,-3.3013,-3.306,-3.2765,-3.2765,-3.2766,-3.2766,-3.2891,-3.2969,-3.2884,-3.2982,-3.2931,-3.3013,-3.2993,-3.2947,-3.3018,-3.2917,-3.2961,-3.2859,-3.3052,-3.3091,-3.2775,-3.2774,-3.2773,-3.2772,-3.2771,-3.3101,-3.3129,-3.3128,-3.3187,-3.3237,-3.319,-3.3263,-3.3212,-3.3166,-3.321,-3.3231,-3.3229,-3.3223,-3.3223,-3.3224,-3.3225,-3.3225,-3.3226,-3.3226,-3.332,-3.3314,-3.338,-3.3398,-3.342,-3.3444,-3.3419,-3.344,-3.3451,-3.3409,-3.3409,-3.3345,-3.3078,-3.3015,-3.3238,-3.3236,-3.3234,-3.3233,-3.3232,-3.3621,-3.3545,-3.3648,-3.3671,-3.3689,-3.3745,-3.368,-3.3728,-3.3738,-3.3777,-3.3702,-3.3512,-3.3476,-3.3453,-3.34,-3.3709,-3.3709,-3.3709,-3.371,-3.38,-3.3776,-3.3872,-3.3911,-3.3944,-3.3897,-3.4019,-3.4002,-3.3973,-3.3977,-3.3925,-3.3849,-3.3827,-3.3804,-3.3773,-3.3723,-3.4108,-3.4109,-3.4109,-3.3984,-3.3961,-3.4074,-3.4043,-3.4054,-3.4066,-3.418,-3.4232,-3.4183,-3.4124,-3.3981,-3.3964,-3.3841,-3.3803,-3.3744,-3.3697,-3.3604,0,0]},{"header":{"parameterUnit":"m.s-1","parameterCategory":1,"la1":30.2992,"la2":30.254,"lo1":-89.0895,"lo2":-89.0443,"dy":0.0025,"dx":0.0025,"nx":19,"ny":19,"refTime":"2026-03-18T03:00:00:Z","depth":0,"parameterNumber":3,"parameterNumberName":"V-component_of_WINDS"},"data":[0,0,0,-0.5142,-0.5144,-0.5246,-0.5247,-0.5374,-0.5375,0,0,0,0,0,0,0,0,0,0,0,-0.5108,-0.5109,-0.5141,-0.5144,-0.5246,-0.5247,-0.5374,-0.5375,0,0,0,0,0,0,0,0,0,0,0,-0.5108,-0.5109,-0.5109,-0.5144,-0.5246,-0.5247,-0.5374,-0.5298,0,0,0,0,0,0,0,0,0,0,-0.5199,-0.5165,-0.5108,-0.5109,-0.5145,-0.5246,-0.5247,-0.5295,-0.5303,-0.5326,0,-0.5345,0,-0.5362,-0.5384,-0.5384,0,0,0,-0.5147,-0.5158,-0.5188,-0.511,-0.5146,-0.5246,-0.5201,-0.5299,-0.5309,-0.5337,-0.5347,-0.5351,-0.5364,-0.5384,-0.5385,-0.5506,-0.5507,0,0,-0.5141,-0.5125,-0.5182,-0.5194,-0.5177,-0.5198,-0.5204,-0.5305,-0.5315,-0.5347,-0.5355,-0.5366,-0.5385,-0.5386,-0.5506,-0.5506,0,0,0,-0.5123,-0.5121,-0.5149,-0.5189,-0.5207,-0.5201,-0.5208,-0.5311,-0.5321,-0.5356,-0.5368,-0.5386,-0.5387,-0.5505,-0.5506,-0.5513,0,0,0,-0.512,-0.511,-0.5146,-0.5138,-0.5205,-0.526,-0.5211,-0.5314,-0.5326,-0.5367,-0.5386,-0.5389,-0.5505,-0.5506,-0.5512,-0.552,0,0,0,-0.5102,-0.5109,-0.5122,-0.5137,-0.518,-0.5259,-0.5275,-0.5317,-0.5333,-0.5384,-0.5389,-0.5505,-0.5506,-0.5511,-0.5518,-0.5548,0,0,0,-0.508,-0.5127,-0.5122,-0.5179,-0.5179,-0.5261,-0.5275,-0.5337,-0.5381,-0.5387,-0.5505,-0.5506,-0.551,-0.5517,-0.5546,-0.5571,-0.5579,0,0,-0.5131,-0.5133,-0.5167,-0.5166,-0.5244,-0.5247,-0.5327,-0.5384,-0.5403,-0.5471,-0.5474,-0.5512,-0.5518,-0.5547,-0.5628,-0.5634,0,0,0,-0.5178,-0.5203,-0.5227,-0.5268,-0.5311,-0.535,-0.5395,-0.5416,-0.5474,-0.5434,-0.553,-0.5534,-0.5552,-0.5565,-0.5571,-0.5588,-0.5511,-0.551,-0.551,-0.5229,-0.525,-0.5309,-0.5343,-0.5382,-0.5428,-0.5462,-0.5498,-0.5509,-0.5531,-0.5553,-0.5598,-0.5613,-0.5617,-0.5634,-0.5565,-0.5565,-0.5565,-0.5566,-0.5307,-0.5346,-0.5357,-0.5419,-0.5441,-0.5494,-0.5539,-0.5544,-0.5597,-0.5584,-0.5602,-0.5588,-0.5623,-0.564,-0.5566,-0.5566,-0.5566,-0.5566,-0.5566,-0.5344,-0.5367,-0.539,-0.5451,-0.5495,-0.5527,-0.5577,-0.5595,-0.5613,-0.563,-0.5655,-0.5655,-0.5659,-0.564,-0.564,-0.564,-0.564,-0.564,-0.564,-0.5375,-0.5401,-0.544,-0.5488,-0.5517,-0.5556,-0.5601,-0.563,-0.5667,-0.5677,-0.5677,-0.5686,-0.5621,-0.5606,-0.5643,-0.5643,-0.5642,-0.5642,-0.5642,-0.545,-0.5436,-0.5496,-0.5525,-0.5582,-0.5626,-0.5647,-0.5704,-0.573,-0.5755,-0.5759,-0.5708,-0.5712,-0.5708,-0.5695,-0.5753,-0.5753,-0.5753,-0.5753,-0.5484,-0.5486,-0.5552,-0.5596,-0.5641,-0.5666,-0.5735,-0.5769,-0.5803,-0.5821,-0.5815,-0.5799,-0.5793,-0.5801,-0.5795,-0.5784,-0.5863,-0.5863,-0.5863,-0.5532,-0.5539,-0.5594,-0.5626,-0.5672,-0.5711,-0.5777,-0.5827,-0.5863,-0.5868,-0.5836,-0.5831,-0.5806,-0.5796,-0.5803,-0.5793,-0.5773,0,0]}]]